CW5775 Weather Reports


time (UTC)temp
C
wind
direction
speed
KPH
gust
KPH
rain 1hr
cm
rain 24hr
cm
rain mn
cm
humidity
%
barometer
mb
20260504160346 20 179 3.2 9.7 0.00 0.00 0.00 42 1010.0
20260504150354 18 244 4.8 14.5 0.00 0.00 0.00 53 1010.4
20260504140350 16 206 9.7 19.3 0.00 0.00 0.00 63 1010.5
20260504130350 15 181 14.5 20.9 0.00 0.00 0.00 65 1011.1
20260504110347 8 186 3.2 4.8 0.00 0.00 0.00 87 1011.7
20260504100358 7 188 1.6 4.8 0.00 0.00 0.00 83 1011.9
20260504081555 8 182 3.2 0.0 0.00 0.00 0.00 73 1011.8
20260504081354 8 182 3.2 8.0 0.00 0.00 0.00 73 1011.8
20260504080350 8 189 4.8 8.0 0.00 0.00 0.00 72 1011.7
20260504070406 8 184 4.8 8.0 0.00 0.00 0.00 71 1011.4
20260504050350 8 187 3.2 8.0 0.00 0.00 0.00 68 1011.4
20260504045344 8 186 3.2 4.8 0.00 0.00 0.00 68 1011.3
20260504044527 7 184 3.2 0.0 0.00 0.00 0.00 68 1011.4
20260504044343 8 184 3.2 4.8 0.00 0.00 0.00 68 1011.3
20260504043337 8 185 1.6 4.8 0.00 0.00 0.00 68 1011.1
20260504043015 7 185 3.2 0.0 0.00 0.00 0.00 68 1011.2
20260504042349 8 184 3.2 6.4 0.00 0.00 0.00 67 1011.0
20260504041553 8 187 3.2 0.0 0.00 0.00 0.00 66 1011.0
20260504041348 8 187 3.2 4.8 0.00 0.00 0.00 66 1011.0
20260504040343 8 187 3.2 6.4 0.00 0.00 0.00 64 1010.9
20260504040022 8 187 3.2 0.0 0.00 0.00 0.00 64 1011.0
20260504035343 9 189 3.2 6.4 0.00 0.00 0.00 63 1010.9
20260504034607 8 190 3.2 0.0 0.00 0.00 0.00 63 1011.0
20260504034402 9 190 3.2 6.4 0.00 0.00 0.00 63 1010.9
20260504033336 9 188 3.2 6.4 0.00 0.00 0.00 62 1010.8
20260504033022 8 187 3.2 0.0 0.00 0.00 0.00 62 1010.9
20260504032335 9 186 3.2 4.8 0.00 0.00 0.00 62 1010.7
20260504031605 9 185 3.2 0.0 0.00 0.00 0.00 61 1010.8
20260504031357 9 184 3.2 6.4 0.00 0.00 0.00 61 1010.7
20260504030352 9 183 3.2 6.4 0.00 0.00 0.00 59 1010.7
20260504025344 10 181 1.6 4.8 0.00 0.00 0.00 58 1010.8
20260504024539 9 180 3.2 0.0 0.00 0.00 0.00 58 1010.9
20260504024343 10 180 4.8 6.4 0.00 0.00 0.00 57 1010.8
20260504023407 10 190 3.2 6.4 0.00 0.00 0.00 57 1010.8
20260504023009 10 187 3.2 0.0 0.00 0.00 0.00 57 1010.9
20260504022342 10 193 3.2 6.4 0.00 0.00 0.00 56 1010.8
20260504021554 10 191 3.2 0.0 0.00 0.00 0.00 56 1010.8
20260504021339 10 191 3.2 4.8 0.00 0.00 0.00 56 1010.8
20260504020401 10 191 3.2 6.4 0.00 0.00 0.00 55 1010.7
20260504020035 10 192 1.6 0.0 0.00 0.00 0.00 55 1010.7
20260504015356 10 193 1.6 4.8 0.00 0.00 0.00 54 1010.6
20260504014619 10 191 1.6 0.0 0.00 0.00 0.00 53 1010.6
20260504014355 11 191 1.6 4.8 0.00 0.00 0.00 53 1010.6
20260504013348 11 191 3.2 4.8 0.00 0.00 0.00 52 1010.4
20260504013103 11 191 3.2 0.0 0.00 0.00 0.00 52 1010.5
20260504012344 11 205 1.6 4.8 0.00 0.00 0.00 52 1010.4
20260504011534 11 217 1.6 0.0 0.00 0.00 0.00 51 1010.4
20260504011340 11 220 3.2 4.8 0.00 0.00 0.00 50 1010.4
20260504010337 11 222 1.6 3.2 0.00 0.00 0.00 50 1010.1
20260504010022 11 222 1.6 0.0 0.00 0.00 0.00 50 1010.2
20260504005333 11 222 1.6 4.8 0.00 0.00 0.00 49 1009.9
20260504004512 11 224 0.0 0.0 0.00 0.00 0.00 50 1010.0
20260504004353 12 224 0.0 1.6 0.00 0.00 0.00 49 1009.9
20260504003349 12 224 0.0 3.2 0.00 0.00 0.00 46 1009.7
20260504003003 12 224 1.6 0.0 0.00 0.00 0.00 47 1009.8
20260504002343 13 224 1.6 4.8 0.00 0.00 0.00 44 1009.5
20260504001559 13 224 1.6 0.0 0.00 0.00 0.00 43 1009.5
20260504001342 13 226 1.6 3.2 0.00 0.00 0.00 43 1009.5
20260504000403 13 227 0.0 3.2 0.00 0.00 0.00 42 1009.4
20260504000038 13 227 0.0 0.0 0.00 0.00 0.00 42 1009.4
20260503235337 13 225 0.0 4.8 0.00 0.00 0.00 41 1009.4
20260503234527 13 225 1.6 0.0 0.00 0.00 0.00 40 1009.4
20260503234354 14 251 1.6 4.8 0.00 0.00 0.00 41 1009.4
20260503233344 14 288 1.6 11.3 0.00 0.00 0.00 40 1009.2
20260503233031 14 293 3.2 0.0 0.00 0.00 0.00 40 1009.3
20260503232359 15 251 3.2 11.3 0.00 0.00 0.00 39 1009.2
20260503231545 15 304 1.6 0.0 0.00 0.00 0.00 38 1009.3
20260503231338 15 304 3.2 9.7 0.00 0.00 0.00 38 1009.2
20260503230334 15 313 4.8 14.5 0.00 0.00 0.00 38 1009.0
20260503230051 15 323 3.2 0.0 0.00 0.00 0.00 38 1009.1
20260503225353 15 305 6.4 17.7 0.00 0.00 0.00 37 1009.1
20260503224517 15 305 4.8 0.0 0.00 0.00 0.00 37 1009.1
20260503224348 15 286 4.8 27.4 0.00 0.00 0.00 37 1009.1
20260503223412 15 248 4.8 11.3 0.00 0.00 0.00 37 1008.9
20260503223001 15 234 4.8 0.0 0.00 0.00 0.00 37 1009.0
20260503222414 15 308 8.0 17.7 0.00 0.00 0.00 37 1009.0
20260503221516 15 267 6.4 0.0 0.00 0.00 0.00 38 1009.0
20260503221352 15 279 4.8 16.1 0.00 0.00 0.00 37 1009.0
20260503220343 15 314 8.0 24.1 0.00 0.00 0.00 36 1009.1
20260503220041 15 305 4.8 0.0 0.00 0.00 0.00 38 1009.1
20260503215343 15 253 4.8 17.7 0.00 0.00 0.00 38 1009.0
20260503214557 15 357 4.8 0.0 0.00 0.00 0.00 37 1009.1
20260503214341 15 342 6.4 16.1 0.00 0.00 0.00 38 1009.0
20260503213338 15 303 1.6 19.3 0.00 0.00 0.00 38 1009.0
20260503213106 15 288 6.4 0.0 0.00 0.00 0.00 37 1009.0
20260503212404 15 284 4.8 17.7 0.00 0.00 0.00 38 1009.0
20260503211505 15 75 6.4 0.0 0.00 0.00 0.00 38 1009.0
20260503211342 15 300 4.8 25.7 0.00 0.00 0.00 39 1009.0
20260503210338 15 277 6.4 17.7 0.00 0.00 0.00 38 1009.1
20260503210105 15 16 4.8 0.0 0.00 0.00 0.00 40 1009.2
20260503205335 15 328 3.2 14.5 0.00 0.00 0.00 39 1009.1
20260503204545 15 272 4.8 0.0 0.00 0.00 0.00 39 1009.1
20260503204338 15 304 3.2 24.1 0.00 0.00 0.00 40 1009.1
20260503203353 15 277 4.8 20.9 0.00 0.00 0.00 39 1009.2
20260503203038 14 286 6.4 0.0 0.00 0.00 0.00 38 1009.3
20260503202352 14 284 8.0 20.9 0.00 0.00 0.00 39 1009.2
20260503201505 14 301 8.0 0.0 0.00 0.00 0.00 37 1009.3
20260503201347 14 210 9.7 22.5 0.00 0.00 0.00 36 1009.2
20260503200345 15 257 4.8 22.5 0.00 0.00 0.00 37 1009.0
20260503200003 15 281 4.8 0.0 0.00 0.00 0.00 38 1009.1
20260503195343 15 244 4.8 24.1 0.00 0.00 0.00 38 1009.3
20260503194543 15 158 4.8 0.0 0.00 0.00 0.00 38 1009.3
20260503194343 15 303 1.6 16.1 0.00 0.00 0.00 42 1009.3
20260503193336 14 284 4.8 25.7 0.00 0.00 0.00 40 1009.3
20260503193046 13 355 6.4 0.0 0.00 0.00 0.00 37 1009.4
20260503192352 14 152 6.4 19.3 0.00 0.00 0.00 38 1009.4
20260503191518 13 305 6.4 0.0 0.00 0.00 0.00 38 1009.4
20260503191348 14 222 11.3 20.9 0.00 0.00 0.00 37 1009.4
20260503190345 14 317 1.6 20.9 0.00 0.00 0.00 39 1009.6
20260503190021 13 215 6.4 0.0 0.00 0.00 0.00 39 1009.6
20260503185406 13 190 3.2 27.4 0.00 0.00 0.00 42 1009.8
20260503184534 13 308 4.8 0.0 0.00 0.00 0.00 40 1009.9
20260503184411 13 251 6.4 16.1 0.00 0.00 0.00 43 1009.8
20260503183339 13 284 8.0 19.3 0.00 0.00 0.00 42 1009.9
20260503183034 12 308 4.8 0.0 0.00 0.00 0.00 42 1010.0
20260503182405 13 270 4.8 27.4 0.00 0.00 0.00 41 1009.9
20260503181534 13 23 6.4 0.0 0.00 0.00 0.00 42 1010.0
20260503181340 13 131 9.7 24.1 0.00 0.00 0.00 41 1009.9
20260503180352 13 258 8.0 20.9 0.00 0.00 0.00 45 1010.1
20260503180035 12 340 6.4 0.0 0.00 0.00 0.00 43 1010.2
20260503175348 13 329 6.4 20.9 0.00 0.00 0.00 44 1010.0
20260503174502 12 87 6.4 0.0 0.00 0.00 0.00 44 1010.1
20260503174412 12 292 8.0 16.1 0.00 0.00 0.00 44 1010.0
20260503173347 12 305 6.4 16.1 0.00 0.00 0.00 44 1010.1
20260503173057 12 335 4.8 0.0 0.00 0.00 0.00 46 1010.2
20260503172341 12 319 4.8 16.1 0.00 0.00 0.00 45 1010.0
20260503171516 12 291 6.4 0.0 0.00 0.00 0.00 45 1010.1
20260503171339 12 33 4.8 24.1 0.00 0.00 0.00 46 1010.0
20260503170414 12 337 11.3 24.1 0.00 0.00 0.00 46 1010.1